SHT3R EGKK-EGCC

Flight info

Callsign SHT3R
Flight time N/A
Altitude 22000
Route NOVMA DCT ELVOS
Aircraft A320/M-SDE3FGHIRWY/LB1

Departure

Time 2026-05-01 10:22
Airport London Gatwick Airport (EGKK)

Arrival

Time N/A
Airport Manchester Airport (EGCC)
Time Latitude Longitude Altitude Speed Heading
2026-05-01 09:41 51.15774 -0.16950 206 ft 0 kts 68°
2026-05-01 10:09 51.15771 -0.16962 207 ft 2 kts 68°
2026-05-01 10:09 51.15765 -0.16986 216 ft 2 kts 68°
2026-05-01 10:09 51.15759 -0.17010 216 ft 2 kts 68°
2026-05-01 10:09 51.15753 -0.17034 219 ft 2 kts 68°
2026-05-01 10:10 51.15747 -0.17059 219 ft 2 kts 110°
2026-05-01 10:10 51.15747 -0.17067 217 ft 0 kts 157°
2026-05-01 10:11 51.15744 -0.17066 217 ft 2 kts 157°
2026-05-01 10:12 51.15703 -0.17048 206 ft 11 kts 168°
2026-05-01 10:12 51.15632 -0.17128 212 ft 17 kts 257°
2026-05-01 10:12 51.15476 -0.17292 206 ft 17 kts 167°
2026-05-01 10:13 51.15357 -0.17250 210 ft 18 kts 169°
2026-05-01 10:13 51.15304 -0.17389 210 ft 17 kts 265°
2026-05-01 10:13 51.15284 -0.17585 209 ft 19 kts 258°
2026-05-01 10:14 51.15225 -0.18000 213 ft 20 kts 257°
2026-05-01 10:14 51.15196 -0.18221 209 ft 21 kts 261°
2026-05-01 10:14 51.15170 -0.18453 210 ft 22 kts 257°
2026-05-01 10:14 51.15137 -0.18689 206 ft 22 kts 257°
2026-05-01 10:15 51.15104 -0.18928 209 ft 22 kts 258°
2026-05-01 10:15 51.15072 -0.19167 216 ft 22 kts 257°
2026-05-01 10:15 51.15039 -0.19407 211 ft 22 kts 257°
2026-05-01 10:15 51.15006 -0.19647 208 ft 22 kts 257°
2026-05-01 10:16 51.14971 -0.19888 216 ft 22 kts 257°
2026-05-01 10:16 51.14938 -0.20134 214 ft 23 kts 258°
2026-05-01 10:16 51.14869 -0.20630 209 ft 23 kts 257°
2026-05-01 10:17 51.14842 -0.20826 206 ft 16 kts 257°
2026-05-01 10:17 51.14789 -0.21184 207 ft 17 kts 254°
2026-05-01 10:17 51.14758 -0.21360 207 ft 13 kts 252°
2026-05-01 10:18 51.14717 -0.21404 216 ft 0 kts 180°
2026-05-01 10:18 51.14711 -0.21403 207 ft 2 kts 174°
2026-05-01 10:18 51.14693 -0.21394 212 ft 4 kts 156°
2026-05-01 10:19 51.14658 -0.21358 214 ft 6 kts 146°
2026-05-01 10:19 51.14620 -0.21332 216 ft 1 kts 165°
2026-05-01 10:19 51.14617 -0.21331 215 ft 0 kts 166°
2026-05-01 10:20 51.14584 -0.21317 216 ft 6 kts 163°
2026-05-01 10:20 51.14538 -0.21269 207 ft 9 kts 131°
2026-05-01 10:20 51.14520 -0.21176 211 ft 9 kts 84°
2026-05-01 10:20 51.14532 -0.21085 209 ft 5 kts 77°
2026-05-01 10:21 51.14532 -0.21083 209 ft 0 kts 77°
2026-05-01 10:21 51.14545 -0.20994 213 ft 29 kts 78°
2026-05-01 10:22 51.14786 -0.19235 212 ft 129 kts 78°
2026-05-01 10:22 51.15225 -0.16058 992 ft 151 kts 81°
2026-05-01 10:23 51.15458 -0.14368 1586 ft 163 kts 82°
2026-05-01 10:23 51.16024 -0.10547 2686 ft 192 kts 79°
2026-05-01 10:23 51.16391 -0.08375 3179 ft 216 kts 77°
2026-05-01 10:24 51.17209 -0.03214 4257 ft 264 kts 76°
2026-05-01 10:24 51.19210 0.01912 5813 ft 278 kts 58°